Time,TemperatureF,DewpointF,PressureIn,WindDirection,WindDirectionDegrees,WindSpeedMPH,WindSpeedGustMPH,Humidity,HourlyPrecipIn,Conditions,Clouds,dailyrainin,SoftwareType,DateUTC
2015-09-04 00:00:00,73.8,72.0,29.81,ENE,64,0.0,0.0,94,0.00,,---,0.00,VWS V13.01,2015-09-04 04:00:00,
2015-09-04 00:05:00,73.8,72.0,29.81,ENE,64,0.0,0.0,94,0.00,,---,0.00,VWS V13.01,2015-09-04 04:05:00,
2015-09-04 00:10:00,73.7,71.9,29.81,ENE,63,0.0,0.0,94,0.00,,---,0.00,VWS V13.01,2015-09-04 04:10:00,
2015-09-04 00:15:00,73.7,71.9,29.81,ENE,64,0.0,0.0,94,0.00,,---,0.00,VWS V13.01,2015-09-04 04:15:00,
2015-09-04 00:20:00,73.6,71.8,29.81,ENE,63,0.0,0.0,94,0.00,,---,0.00,VWS V13.01,2015-09-04 04:20:00,
2015-09-04 00:25:00,73.6,71.8,29.81,ENE,64,0.0,0.0,94,0.00,,---,0.00,VWS V13.01,2015-09-04 04:25:00,
2015-09-04 00:30:00,73.5,71.7,29.82,ENE,64,0.0,0.0,94,0.00,,---,0.00,VWS V13.01,2015-09-04 04:30:00,
2015-09-04 00:40:00,73.4,71.6,29.82,ENE,64,0.0,0.0,94,0.00,,---,0.00,VWS V13.01,2015-09-04 04:40:00,
2015-09-04 00:45:00,73.3,71.5,29.82,ENE,64,0.0,0.0,94,0.00,,---,0.00,VWS V13.01,2015-09-04 04:45:00,
2015-09-04 00:50:00,73.2,71.4,29.82,ENE,64,0.0,0.0,94,0.00,,---,0.00,VWS V13.01,2015-09-04 04:50:00,
2015-09-04 00:55:00,73.1,71.3,29.82,ENE,63,0.0,0.0,94,0.00,,---,0.00,VWS V13.01,2015-09-04 04:55:00,
2015-09-04 01:00:00,73.0,71.2,29.82,ENE,64,0.0,0.0,94,0.00,,---,0.00,VWS V13.01,2015-09-04 05:00:00,
2015-09-04 01:05:00,72.9,71.1,29.81,ENE,63,0.0,0.0,94,0.00,,---,0.00,VWS V13.01,2015-09-04 05:05:00,
2015-09-04 01:10:00,72.7,70.9,29.81,ENE,63,0.0,0.0,94,0.00,,---,0.00,VWS V13.01,2015-09-04 05:10:00,
2015-09-04 01:15:00,72.7,70.9,29.82,ENE,64,0.0,0.0,94,0.00,,---,0.00,VWS V13.01,2015-09-04 05:15:00,
2015-09-04 01:20:00,72.6,70.8,29.82,ENE,64,0.0,0.0,94,0.00,,---,0.00,VWS V13.01,2015-09-04 05:20:00,
2015-09-04 01:25:00,72.5,70.7,29.82,ENE,63,0.0,0.0,94,0.00,,---,0.00,VWS V13.01,2015-09-04 05:25:00,
2015-09-04 01:30:00,72.4,70.6,29.82,ENE,64,0.0,0.0,94,0.00,,---,0.00,VWS V13.01,2015-09-04 05:30:00,
2015-09-04 01:35:00,72.3,70.5,29.82,ENE,64,0.0,0.0,94,0.00,,---,0.00,VWS V13.01,2015-09-04 05:35:00,
2015-09-04 01:40:00,72.2,70.4,29.82,ENE,64,0.0,0.0,94,0.00,,---,0.00,VWS V13.01,2015-09-04 05:40:00,
2015-09-04 01:45:00,72.1,70.3,29.82,ENE,63,0.0,0.0,94,0.00,,---,0.00,VWS V13.01,2015-09-04 05:45:00,
2015-09-04 01:50:00,72.2,70.4,29.82,ENE,64,0.0,0.0,94,0.00,,---,0.00,VWS V13.01,2015-09-04 05:50:00,
2015-09-04 01:55:00,72.2,70.4,29.82,ENE,63,0.0,0.0,94,0.00,,---,0.00,VWS V13.01,2015-09-04 05:55:00,
2015-09-04 02:00:00,72.2,70.4,29.82,ENE,64,0.0,0.0,94,0.00,,---,0.00,VWS V13.01,2015-09-04 06:00:00,
2015-09-04 02:05:00,72.3,70.5,29.82,ENE,64,0.0,0.0,94,0.00,,---,0.00,VWS V13.01,2015-09-04 06:05:00,
2015-09-04 02:10:00,72.4,70.6,29.82,ENE,64,0.0,0.0,94,0.00,,---,0.00,VWS V13.01,2015-09-04 06:10:00,
2015-09-04 02:15:00,72.3,70.5,29.82,ENE,63,0.0,0.0,94,0.00,,---,0.00,VWS V13.01,2015-09-04 06:15:00,
2015-09-04 02:20:00,72.2,70.4,29.82,ENE,64,0.0,0.0,94,0.00,,---,0.00,VWS V13.01,2015-09-04 06:20:00,
2015-09-04 02:25:00,72.2,70.4,29.82,ENE,63,0.0,0.0,94,0.00,,---,0.00,VWS V13.01,2015-09-04 06:25:00,
2015-09-04 02:30:00,72.1,70.3,29.82,ENE,63,0.0,0.0,94,0.00,,---,0.00,VWS V13.01,2015-09-04 06:30:00,
2015-09-04 02:35:00,72.0,70.2,29.82,ENE,63,0.0,0.0,94,0.00,,---,0.00,VWS V13.01,2015-09-04 06:35:00,
2015-09-04 02:40:00,72.0,70.2,29.82,ENE,64,0.0,0.0,94,0.00,,---,0.00,VWS V13.01,2015-09-04 06:40:00,
2015-09-04 02:45:00,71.9,70.1,29.82,ENE,64,0.0,0.0,94,0.00,,---,0.00,VWS V13.01,2015-09-04 06:45:00,
2015-09-04 02:50:00,71.8,70.3,29.82,ENE,64,0.0,0.0,95,0.00,,---,0.00,VWS V13.01,2015-09-04 06:50:00,
2015-09-04 02:55:00,71.6,70.1,29.82,ENE,64,0.0,0.0,95,0.00,,---,0.00,VWS V13.01,2015-09-04 06:55:00,
2015-09-04 03:00:00,71.4,69.9,29.82,ENE,64,0.0,0.0,95,0.00,,---,0.00,VWS V13.01,2015-09-04 07:00:00,
2015-09-04 03:05:00,71.3,69.8,29.82,ENE,63,0.0,0.0,95,0.00,,---,0.00,VWS V13.01,2015-09-04 07:05:00,
2015-09-04 03:10:00,71.3,69.8,29.82,ENE,63,0.0,0.0,95,0.00,,---,0.00,VWS V13.01,2015-09-04 07:10:00,
2015-09-04 03:15:00,71.3,69.8,29.83,ENE,64,0.0,0.0,95,0.00,,---,0.00,VWS V13.01,2015-09-04 07:15:00,
2015-09-04 03:20:00,71.3,69.8,29.82,ENE,64,0.0,0.0,95,0.00,,---,0.00,VWS V13.01,2015-09-04 07:20:00,
2015-09-04 03:25:00,71.2,69.7,29.82,ENE,64,0.0,0.0,95,0.00,,---,0.00,VWS V13.01,2015-09-04 07:25:00,
2015-09-04 03:30:00,71.2,69.7,29.82,ENE,64,0.0,0.0,95,0.00,,---,0.00,VWS V13.01,2015-09-04 07:30:00,
2015-09-04 03:35:00,71.1,69.6,29.82,ENE,63,0.0,0.0,95,0.00,,---,0.00,VWS V13.01,2015-09-04 07:35:00,
2015-09-04 03:40:00,71.1,69.6,29.82,ENE,64,0.0,0.0,95,0.00,,---,0.00,VWS V13.01,2015-09-04 07:40:00,
2015-09-04 03:45:00,71.1,69.6,29.82,ENE,64,0.0,0.0,95,0.00,,---,0.00,VWS V13.01,2015-09-04 07:45:00,
2015-09-04 03:50:00,71.2,69.7,29.82,ENE,63,0.0,0.0,95,0.00,,---,0.00,VWS V13.01,2015-09-04 07:50:00,
2015-09-04 03:55:00,71.1,69.6,29.83,ENE,64,0.0,0.0,95,0.00,,---,0.00,VWS V13.01,2015-09-04 07:55:00,
2015-09-04 04:00:00,71.0,69.5,29.83,ENE,64,0.0,0.0,95,0.00,,---,0.00,VWS V13.01,2015-09-04 08:00:00,
2015-09-04 04:05:00,70.9,69.4,29.83,ENE,63,0.0,0.0,95,0.00,,---,0.00,VWS V13.01,2015-09-04 08:05:00,
2015-09-04 04:10:00,70.8,69.3,29.83,ENE,64,0.0,0.0,95,0.00,,---,0.00,VWS V13.01,2015-09-04 08:10:00,
2015-09-04 04:15:00,70.7,69.2,29.83,ENE,64,0.0,0.0,95,0.00,,---,0.00,VWS V13.01,2015-09-04 08:15:00,
2015-09-04 04:20:00,70.8,69.3,29.83,ENE,64,0.0,0.0,95,0.00,,---,0.00,VWS V13.01,2015-09-04 08:20:00,
2015-09-04 04:25:00,70.7,69.2,29.83,ENE,63,0.0,0.0,95,0.00,,---,0.00,VWS V13.01,2015-09-04 08:25:00,
2015-09-04 04:30:00,70.6,69.1,29.83,ENE,64,0.0,0.0,95,0.00,,---,0.00,VWS V13.01,2015-09-04 08:30:00,
2015-09-04 04:35:00,70.5,69.0,29.83,ENE,64,0.0,0.0,95,0.00,,---,0.00,VWS V13.01,2015-09-04 08:35:00,
2015-09-04 04:40:00,70.5,69.0,29.83,ENE,64,0.0,0.0,95,0.00,,---,0.00,VWS V13.01,2015-09-04 08:40:00,
2015-09-04 04:45:00,70.4,68.9,29.83,ENE,63,0.0,0.0,95,0.00,,---,0.00,VWS V13.01,2015-09-04 08:45:00,
2015-09-04 04:50:00,70.3,68.8,29.83,ENE,64,0.0,0.0,95,0.00,,---,0.00,VWS V13.01,2015-09-04 08:50:00,
2015-09-04 04:55:00,70.3,68.8,29.83,ENE,63,0.0,0.0,95,0.00,,---,0.00,VWS V13.01,2015-09-04 08:55:00,
2015-09-04 05:00:00,70.3,68.8,29.83,ENE,64,0.0,0.0,95,0.00,,---,0.00,VWS V13.01,2015-09-04 09:00:00,
2015-09-04 05:05:00,70.4,68.9,29.83,ENE,64,0.0,0.0,95,0.00,,---,0.00,VWS V13.01,2015-09-04 09:05:00,
2015-09-04 05:10:00,70.4,68.9,29.83,ENE,63,0.0,0.0,95,0.00,,---,0.00,VWS V13.01,2015-09-04 09:10:00,
2015-09-04 05:15:00,70.4,68.9,29.83,ENE,64,0.0,0.0,95,0.00,,---,0.00,VWS V13.01,2015-09-04 09:15:00,
2015-09-04 05:20:00,70.3,68.8,29.83,ENE,63,0.0,0.0,95,0.00,,---,0.00,VWS V13.01,2015-09-04 09:20:00,
2015-09-04 05:25:00,70.2,68.7,29.83,ENE,64,0.0,0.0,95,0.00,,---,0.00,VWS V13.01,2015-09-04 09:25:00,
2015-09-04 05:30:00,70.1,68.6,29.83,ENE,63,0.0,0.0,95,0.00,,---,0.00,VWS V13.01,2015-09-04 09:30:00,
2015-09-04 05:35:00,70.0,68.5,29.83,ENE,63,0.0,0.0,95,0.00,,---,0.00,VWS V13.01,2015-09-04 09:35:00,
2015-09-04 05:40:00,69.9,68.4,29.83,ENE,64,0.0,0.0,95,0.00,,---,0.00,VWS V13.01,2015-09-04 09:40:00,
2015-09-04 05:45:00,69.9,68.4,29.84,ENE,64,0.0,0.0,95,0.00,,---,0.00,VWS V13.01,2015-09-04 09:45:00,
2015-09-04 05:50:00,69.9,68.4,29.84,ENE,64,0.0,0.0,95,0.00,,---,0.00,VWS V13.01,2015-09-04 09:50:00,
2015-09-04 05:55:00,69.9,68.4,29.84,ENE,64,0.0,0.0,95,0.00,,---,0.00,VWS V13.01,2015-09-04 09:55:00,
2015-09-04 06:00:00,69.9,68.4,29.84,ENE,64,0.0,0.0,95,0.00,,---,0.00,VWS V13.01,2015-09-04 10:00:00,
2015-09-04 06:05:00,69.9,68.4,29.84,ENE,64,0.0,0.0,95,0.00,,---,0.00,VWS V13.01,2015-09-04 10:05:00,
2015-09-04 06:10:00,69.8,68.3,29.84,ENE,64,0.0,0.0,95,0.00,,---,0.00,VWS V13.01,2015-09-04 10:10:00,
2015-09-04 06:15:00,69.6,68.1,29.84,ENE,63,0.0,0.0,95,0.00,,---,0.00,VWS V13.01,2015-09-04 10:15:00,
2015-09-04 06:20:00,69.5,68.0,29.84,ENE,63,0.0,0.0,95,0.00,,---,0.00,VWS V13.01,2015-09-04 10:20:00,
2015-09-04 06:21:00,69.5,68.0,29.84,ENE,64,0.0,0.0,95,0.00,,---,0.00,VWS V13.01,2015-09-04 10:21:00,
2015-09-04 06:23:00,69.5,68.0,29.84,ENE,64,0.0,0.0,95,0.00,,---,0.00,VWS V13.01,2015-09-04 10:23:00,
2015-09-04 06:27:00,69.4,67.9,29.84,ENE,64,0.0,0.0,95,0.00,,---,0.00,VWS V13.01,2015-09-04 10:27:00,
2015-09-04 06:32:00,69.4,67.9,29.84,ENE,64,0.0,0.0,95,0.00,,---,0.00,VWS V13.01,2015-09-04 10:32:00,
2015-09-04 06:37:00,69.5,68.0,29.84,ENE,63,0.0,0.0,95,0.00,,---,0.00,VWS V13.01,2015-09-04 10:37:00,
2015-09-04 06:42:00,69.4,67.9,29.84,ENE,63,0.0,0.0,95,0.00,,---,0.00,VWS V13.01,2015-09-04 10:42:00,
2015-09-04 06:47:00,69.4,67.9,29.84,ENE,63,0.0,0.0,95,0.00,,---,0.00,VWS V13.01,2015-09-04 10:47:00,
2015-09-04 06:52:00,69.3,67.8,29.84,ENE,64,0.0,0.0,95,0.00,,---,0.00,VWS V13.01,2015-09-04 10:52:00,
2015-09-04 06:57:00,69.2,67.7,29.85,ENE,63,0.0,0.0,95,0.00,,---,0.00,VWS V13.01,2015-09-04 10:57:00,
2015-09-04 07:02:00,69.1,67.6,29.85,ENE,64,0.0,0.0,95,0.00,,---,0.00,VWS V13.01,2015-09-04 11:02:00,
2015-09-04 07:07:00,69.2,67.7,29.85,ENE,63,0.0,0.0,95,0.00,,---,0.00,VWS V13.01,2015-09-04 11:07:00,
2015-09-04 07:12:00,69.2,67.7,29.85,ENE,63,0.0,0.0,95,0.00,,---,0.00,VWS V13.01,2015-09-04 11:12:00,
2015-09-04 07:17:00,69.3,67.8,29.85,ENE,64,0.0,0.0,95,0.00,,---,0.00,VWS V13.01,2015-09-04 11:17:00,
2015-09-04 07:22:00,69.2,67.7,29.85,ENE,64,0.0,0.0,95,0.00,,---,0.00,VWS V13.01,2015-09-04 11:22:00,
2015-09-04 07:27:00,69.1,67.6,29.86,ENE,64,0.0,0.0,95,0.00,,---,0.00,VWS V13.01,2015-09-04 11:27:00,
2015-09-04 07:32:00,69.1,67.6,29.86,ENE,64,0.0,0.0,95,0.00,,---,0.00,VWS V13.01,2015-09-04 11:32:00,
2015-09-04 07:37:00,69.0,67.5,29.86,ENE,63,0.0,0.0,95,0.00,,---,0.00,VWS V13.01,2015-09-04 11:37:00,
2015-09-04 07:42:00,69.0,67.5,29.87,ENE,64,0.0,0.0,95,0.00,,---,0.00,VWS V13.01,2015-09-04 11:42:00,
2015-09-04 07:47:00,69.0,67.5,29.87,ENE,63,0.0,0.0,95,0.00,,---,0.00,VWS V13.01,2015-09-04 11:47:00,
2015-09-04 07:52:00,69.0,67.5,29.87,ENE,63,0.0,0.0,95,0.00,,---,0.00,VWS V13.01,2015-09-04 11:52:00,
2015-09-04 07:57:00,69.1,67.6,29.87,ENE,63,0.0,0.0,95,0.00,,---,0.00,VWS V13.01,2015-09-04 11:57:00,
2015-09-04 08:02:00,69.2,67.7,29.87,ENE,64,0.0,0.0,95,0.00,,---,0.00,VWS V13.01,2015-09-04 12:02:00,
2015-09-04 08:07:00,69.2,67.7,29.87,ENE,64,0.0,0.0,95,0.00,,---,0.00,VWS V13.01,2015-09-04 12:07:00,
2015-09-04 08:12:00,69.3,67.8,29.87,ENE,64,0.0,0.0,95,0.00,,---,0.00,VWS V13.01,2015-09-04 12:12:00,
2015-09-04 08:17:00,69.4,67.9,29.87,ENE,63,0.0,0.0,95,0.00,,---,0.00,VWS V13.01,2015-09-04 12:17:00,
2015-09-04 08:22:00,69.7,68.2,29.88,ENE,63,0.0,0.0,95,0.00,,---,0.00,VWS V13.01,2015-09-04 12:22:00,
2015-09-04 08:27:00,69.8,68.3,29.88,ENE,64,0.0,0.0,95,0.00,,---,0.00,VWS V13.01,2015-09-04 12:27:00,
2015-09-04 08:32:00,69.9,68.4,29.88,ENE,64,0.0,0.0,95,0.00,,---,0.00,VWS V13.01,2015-09-04 12:32:00,
2015-09-04 08:37:00,70.0,68.5,29.88,ENE,64,0.0,0.0,95,0.00,,---,0.00,VWS V13.01,2015-09-04 12:37:00,
2015-09-04 08:41:00,70.2,68.7,29.88,ENE,63,0.0,0.0,95,0.00,,---,0.00,VWS V13.01,2015-09-04 12:41:00,
2015-09-04 08:46:00,70.7,69.2,29.88,ENE,64,0.0,0.0,95,0.00,,---,0.00,VWS V13.01,2015-09-04 12:46:00,
2015-09-04 08:52:00,71.0,69.5,29.88,ENE,64,0.0,1.0,95,0.00,,---,0.00,VWS V13.01,2015-09-04 12:52:00,
2015-09-04 08:57:00,71.5,70.0,29.88,ENE,63,0.0,1.0,95,0.00,,---,0.00,VWS V13.01,2015-09-04 12:57:00,
2015-09-04 09:02:00,72.1,69.7,29.88,ENE,64,0.0,3.0,92,0.00,,---,0.00,VWS V13.01,2015-09-04 13:02:00,
2015-09-04 09:07:00,72.8,70.0,29.88,ENE,63,0.0,3.0,91,0.00,,---,0.00,VWS V13.01,2015-09-04 13:07:00,
2015-09-04 09:11:00,73.4,70.3,29.88,ENE,64,1.0,4.0,90,0.00,,---,0.00,VWS V13.01,2015-09-04 13:11:00,
2015-09-04 09:16:00,73.9,70.1,29.88,ENE,64,0.0,4.0,88,0.00,,---,0.00,VWS V13.01,2015-09-04 13:16:00,
2015-09-04 09:21:00,74.3,70.2,29.88,ENE,64,0.0,4.0,87,0.00,,---,0.00,VWS V13.01,2015-09-04 13:21:00,
2015-09-04 09:26:00,74.8,70.3,29.89,ENE,63,0.0,7.0,86,0.00,,---,0.00,VWS V13.01,2015-09-04 13:26:00,
2015-09-04 09:31:00,75.2,70.4,29.89,ENE,63,1.0,5.0,85,0.00,,---,0.00,VWS V13.01,2015-09-04 13:31:00,
2015-09-04 09:36:00,75.6,70.4,29.89,ENE,63,1.0,5.0,84,0.00,,---,0.00,VWS V13.01,2015-09-04 13:36:00,
2015-09-04 09:41:00,76.0,70.8,29.89,ENE,63,1.0,5.0,84,0.00,,---,0.00,VWS V13.01,2015-09-04 13:41:00,
2015-09-04 09:46:00,76.8,71.2,29.89,ENE,63,1.0,5.0,83,0.00,,---,0.00,VWS V13.01,2015-09-04 13:46:00,
2015-09-04 09:51:00,77.0,70.7,29.89,ENE,63,3.0,9.0,81,0.00,,---,0.00,VWS V13.01,2015-09-04 13:51:00,
2015-09-04 09:56:00,77.0,71.1,29.89,ENE,63,0.0,9.0,82,0.00,,---,0.00,VWS V13.01,2015-09-04 13:56:00,
2015-09-04 10:01:00,77.3,71.7,29.89,ENE,63,0.0,2.0,83,0.00,,---,0.00,VWS V13.01,2015-09-04 14:01:00,
2015-09-04 10:06:00,77.6,71.3,29.89,ENE,63,0.0,5.0,81,0.00,,---,0.00,VWS V13.01,2015-09-04 14:06:00,
2015-09-04 10:11:00,77.7,71.0,29.90,ENE,63,3.0,5.0,80,0.00,,---,0.00,VWS V13.01,2015-09-04 14:11:00,
2015-09-04 10:16:00,77.6,70.9,29.89,ENE,63,2.0,5.0,80,0.00,,---,0.00,VWS V13.01,2015-09-04 14:16:00,
2015-09-04 10:21:00,77.4,70.8,29.89,ENE,63,0.0,5.0,80,0.00,,---,0.00,VWS V13.01,2015-09-04 14:21:00,
2015-09-04 10:26:00,77.4,71.1,29.89,ENE,63,0.0,5.0,81,0.00,,---,0.00,VWS V13.01,2015-09-04 14:26:00,
2015-09-04 10:31:00,77.6,71.7,29.89,ENE,63,0.0,2.0,82,0.00,,---,0.00,VWS V13.01,2015-09-04 14:31:00,
2015-09-04 10:36:00,78.3,72.0,29.90,ENE,63,2.0,5.0,81,0.00,,---,0.00,VWS V13.01,2015-09-04 14:36:00,
2015-09-04 10:41:00,78.7,72.4,29.90,ENE,63,0.0,6.0,81,0.00,,---,0.00,VWS V13.01,2015-09-04 14:41:00,
2015-09-04 10:46:00,79.4,72.3,29.90,ENE,63,3.0,6.0,79,0.00,,---,0.00,VWS V13.01,2015-09-04 14:46:00,
2015-09-04 10:51:00,80.0,72.5,29.90,ENE,63,1.0,6.0,78,0.00,,---,0.00,VWS V13.01,2015-09-04 14:51:00,
2015-09-04 10:56:00,80.3,72.1,29.89,ENE,63,0.0,6.0,76,0.00,,---,0.00,VWS V13.01,2015-09-04 14:56:00,
2015-09-04 11:01:00,80.5,71.8,29.89,ENE,63,2.0,4.0,75,0.00,,---,0.00,VWS V13.01,2015-09-04 15:01:00,
2015-09-04 11:06:00,80.7,72.0,29.90,ENE,63,2.0,6.0,75,0.00,,---,0.00,VWS V13.01,2015-09-04 15:06:00,
2015-09-04 11:11:00,80.8,72.5,29.90,ENE,61,4.0,7.0,76,0.00,,---,0.00,VWS V13.01,2015-09-04 15:11:00,
2015-09-04 11:16:00,81.2,72.9,29.89,ENE,61,0.0,7.0,76,0.00,,---,0.00,VWS V13.01,2015-09-04 15:16:00,
2015-09-04 11:21:00,82.0,72.9,29.89,ENE,61,2.0,7.0,74,0.00,,---,0.00,VWS V13.01,2015-09-04 15:21:00,
2015-09-04 11:26:00,82.3,72.4,29.89,ENE,61,0.0,7.0,72,0.00,,---,0.00,VWS V13.01,2015-09-04 15:26:00,
2015-09-04 11:31:00,82.3,72.4,29.89,ENE,60,0.0,3.0,72,0.00,,---,0.00,VWS V13.01,2015-09-04 15:31:00,
2015-09-04 11:36:00,82.7,72.8,29.89,North,1,0.0,7.0,72,0.00,,---,0.00,VWS V13.01,2015-09-04 15:36:00,
2015-09-04 11:41:00,83.3,72.9,29.89,North,1,0.0,7.0,71,0.00,,---,0.00,VWS V13.01,2015-09-04 15:41:00,
2015-09-04 11:46:00,83.7,73.3,29.89,North,1,0.0,7.0,71,0.00,,---,0.00,VWS V13.01,2015-09-04 15:46:00,
2015-09-04 11:51:00,84.1,72.4,29.89,North,1,2.0,7.0,68,0.00,,---,0.00,VWS V13.01,2015-09-04 15:51:00,
2015-09-04 11:56:00,84.2,73.4,29.89,North,1,0.0,7.0,70,0.00,,---,0.00,VWS V13.01,2015-09-04 15:56:00,
2015-09-04 12:01:00,84.7,73.0,29.89,North,1,0.0,1.0,68,0.00,,---,0.00,VWS V13.01,2015-09-04 16:01:00,
2015-09-04 12:06:00,85.0,72.4,29.89,North,1,0.0,6.0,66,0.00,,---,0.00,VWS V13.01,2015-09-04 16:06:00,
2015-09-04 12:11:00,85.2,74.7,29.89,North,1,0.0,6.0,71,0.00,,---,0.00,VWS V13.01,2015-09-04 16:11:00,
2015-09-04 12:16:00,85.7,73.0,29.89,North,1,2.0,6.0,66,0.00,,---,0.00,VWS V13.01,2015-09-04 16:16:00,
2015-09-04 12:21:00,85.5,72.8,29.89,North,1,3.0,6.0,66,0.00,,---,0.00,VWS V13.01,2015-09-04 16:21:00,
2015-09-04 12:26:00,85.4,73.6,29.88,North,1,1.0,6.0,68,0.00,,---,0.00,VWS V13.01,2015-09-04 16:26:00,
2015-09-04 12:31:00,85.4,73.2,29.89,North,1,2.0,3.0,67,0.00,,---,0.00,VWS V13.01,2015-09-04 16:31:00,
2015-09-04 12:36:00,85.9,73.7,29.88,North,1,0.0,3.0,67,0.00,,---,0.00,VWS V13.01,2015-09-04 16:36:00,
2015-09-04 12:41:00,85.9,73.7,29.88,North,1,1.0,6.0,67,0.00,,---,0.00,VWS V13.01,2015-09-04 16:41:00,
2015-09-04 12:46:00,86.2,74.0,29.88,North,1,1.0,6.0,67,0.00,,---,0.00,VWS V13.01,2015-09-04 16:46:00,
2015-09-04 12:51:00,86.5,74.7,29.88,North,1,1.0,6.0,68,0.00,,---,0.00,VWS V13.01,2015-09-04 16:51:00,
2015-09-04 12:56:00,86.6,74.3,29.88,North,1,0.0,6.0,67,0.00,,---,0.00,VWS V13.01,2015-09-04 16:56:00,
2015-09-04 13:01:00,87.0,75.2,29.88,North,1,0.0,1.0,68,0.00,,---,0.00,VWS V13.01,2015-09-04 17:01:00,